sat.trackr.live / text

‹ back to catalog

STARLINK-5143

NORAD 54089 · 2022-136AQ

PAYLOAD ACTIVE UNKNOWN

§ Identity

Operator
Country
US
Launch date
2022-10-20
Launch site
AFETR
Launch vehicle
Mass (kg)
RCS (m²)

Purposes: comms

External: N2YO · Heavens-Above · Gunter

§ Orbital elements

Epoch: 2026-09-20T22:00:03.000096Z

Period
94.19 min
Inclination
53.1615°
Eccentricity
0.0001953
Mean motion
15.28897419 rev/d
Perigee alt
477.8 km
Apogee alt
480.4 km
Semi-major
6,857.2 km
B*
3.3025e-4
RAAN
175.6226°
Arg perigee
74.9186°
Mean anomaly
54.5785°
Rev number
580

§ Raw data

STARLINK-51431 54089U 22136AQ  26263.91670139  .00009053  00000+0  33025-3 0  99972 54089  53.1615 175.6226 0001953  74.9186  54.5785 15.28897419  5802

JSON: /api/v1/satellites/54089 · /tle

For live sub-satellite position, see the globe view (requires WebGL).

§ Visibility from observer

Set your observer location to see the next 7 days of passes ≥ 10°. The values pass through the URL so the page stays shareable.

No JS? Fill the form by hand. The geolocation button needs JavaScript.